| time (UTC) | temp F | wind direction | speed knots | gust knots | rain 1hr in | rain 24hr in | rain mn in | humidity % | barometer mb |
| 20260906145149 | 58 | 9 | 1.7 | 1.7 | 0.00 | 0.00 | 0.00 | 86 | 1016.2 |
| 20260906144649 | 58 | 340 | 1.7 | 2.6 | 0.00 | 0.00 | 0.00 | 86 | 1016.1 |
| 20260906144144 | 58 | 6 | 0.0 | 0.0 | 0.00 | 0.00 | 0.00 | 86 | 1016.2 |
| 20260906143643 | 58 | 331 | 0.0 | 0.0 | 0.00 | 0.00 | 0.00 | 87 | 1016.4 |
| 20260906143141 | 57 | 326 | 0.0 | 0.0 | 0.00 | 0.00 | 0.00 | 87 | 1016.2 |
| 20260906142640 | 57 | 323 | 0.0 | 0.0 | 0.00 | 0.00 | 0.00 | 88 | 1016.1 |
| 20260906142135 | 56 | 315 | 0.0 | 0.0 | 0.00 | 0.00 | 0.00 | 89 | 1016.3 |
| 20260906141634 | 56 | 341 | 0.0 | 0.0 | 0.00 | 0.00 | 0.00 | 89 | 1016.2 |
| 20260906141129 | 55 | 342 | 1.7 | 1.7 | 0.00 | 0.00 | 0.00 | 89 | 1016.3 |
| 20260906140628 | 55 | 322 | 0.9 | 0.9 | 0.00 | 0.00 | 0.00 | 89 | 1016.1 |
| 20260906140124 | 55 | 340 | 0.9 | 1.7 | 0.00 | 0.00 | 0.00 | 89 | 1016.2 |
| 20260906135621 | 55 | 333 | 0.0 | 0.0 | 0.00 | 0.00 | 0.00 | 89 | 1016.1 |
| 20260906135116 | 55 | 308 | 0.0 | 0.0 | 0.00 | 0.00 | 0.00 | 89 | 1016.1 |
| 20260906134612 | 55 | 308 | 0.0 | 0.0 | 0.00 | 0.00 | 0.00 | 89 | 1016.1 |
| 20260906134107 | 55 | 319 | 0.0 | 0.0 | 0.00 | 0.00 | 0.00 | 89 | 1016.3 |
| 20260906133603 | 55 | 321 | 0.0 | 0.0 | 0.00 | 0.00 | 0.00 | 89 | 1016.2 |
| 20260906133057 | 55 | 313 | 0.0 | 0.0 | 0.00 | 0.00 | 0.00 | 89 | 1016.0 |
| 20260906132552 | 55 | 333 | 0.0 | 0.0 | 0.00 | 0.00 | 0.00 | 89 | 1016.0 |
| 20260906132048 | 55 | 339 | 0.0 | 0.0 | 0.00 | 0.00 | 0.00 | 89 | 1016.4 |
| 20260906131543 | 55 | 338 | 0.0 | 0.0 | 0.00 | 0.00 | 0.00 | 89 | 1016.2 |
| 20260906131038 | 55 | 317 | 0.0 | 0.0 | 0.00 | 0.00 | 0.00 | 89 | 1016.1 |
| 20260906130538 | 55 | 317 | 0.0 | 0.0 | 0.00 | 0.00 | 0.00 | 89 | 1015.9 |
| 20260906130033 | 55 | 325 | 0.0 | 0.0 | 0.00 | 0.00 | 0.00 | 88 | 1016.0 |
| 20260906125530 | 55 | 333 | 0.0 | 0.0 | 0.00 | 0.00 | 0.00 | 88 | 1015.9 |
| 20260906125025 | 55 | 349 | 0.0 | 0.0 | 0.00 | 0.00 | 0.00 | 88 | 1016.1 |
| 20260906124520 | 55 | 32 | 1.7 | 1.7 | 0.00 | 0.00 | 0.00 | 88 | 1015.9 |
| 20260906124015 | 55 | 328 | 0.0 | 0.0 | 0.00 | 0.00 | 0.00 | 88 | 1015.7 |
| 20260906123514 | 55 | 338 | 0.0 | 0.0 | 0.00 | 0.00 | 0.00 | 88 | 1016.0 |
| 20260906123010 | 55 | 325 | 0.0 | 0.0 | 0.00 | 0.00 | 0.00 | 88 | 1016.1 |
| 20260906122504 | 55 | 349 | 0.0 | 0.0 | 0.00 | 0.00 | 0.00 | 88 | 1016.0 |
| 20260906122000 | 56 | 347 | 0.0 | 0.0 | 0.00 | 0.00 | 0.00 | 88 | 1016.1 |
| 20260906121456 | 56 | 339 | 0.0 | 0.0 | 0.00 | 0.00 | 0.00 | 87 | 1016.3 |
| 20260906120952 | 56 | 339 | 0.0 | 0.0 | 0.00 | 0.00 | 0.00 | 87 | 1016.3 |
| 20260906120447 | 56 | 334 | 0.0 | 0.0 | 0.00 | 0.00 | 0.00 | 87 | 1016.3 |
| 20260906115944 | 56 | 334 | 0.0 | 0.0 | 0.00 | 0.00 | 0.00 | 87 | 1016.3 |
| 20260906115439 | 56 | 42 | 0.0 | 0.0 | 0.00 | 0.00 | 0.00 | 87 | 1016.1 |
| 20260906114938 | 56 | 25 | 0.0 | 0.0 | 0.00 | 0.00 | 0.00 | 87 | 1016.1 |
| 20260906114433 | 56 | 339 | 0.0 | 0.0 | 0.00 | 0.00 | 0.00 | 87 | 1016.1 |
| 20260906113929 | 56 | 330 | 0.9 | 1.7 | 0.00 | 0.00 | 0.00 | 87 | 1016.1 |
| 20260906113427 | 56 | 334 | 0.9 | 0.9 | 0.00 | 0.00 | 0.00 | 87 | 1016.2 |
| 20260906112923 | 56 | 335 | 0.0 | 0.0 | 0.00 | 0.00 | 0.00 | 86 | 1015.9 |
| 20260906112419 | 57 | 331 | 0.0 | 0.0 | 0.00 | 0.00 | 0.00 | 86 | 1016.2 |
| 20260906111914 | 57 | 32 | 0.9 | 0.9 | 0.00 | 0.00 | 0.00 | 86 | 1016.4 |
| 20260906111413 | 57 | 7 | 0.0 | 0.9 | 0.00 | 0.00 | 0.00 | 86 | 1016.2 |
| 20260906110908 | 57 | 19 | 2.6 | 4.3 | 0.00 | 0.00 | 0.00 | 86 | 1016.6 |
| 20260906110404 | 57 | 16 | 3.5 | 4.3 | 0.00 | 0.00 | 0.00 | 86 | 1016.4 |
| 20260906105903 | 57 | 358 | 1.7 | 2.6 | 0.00 | 0.00 | 0.00 | 86 | 1016.2 |
| 20260906105359 | 57 | 20 | 0.9 | 0.9 | 0.00 | 0.00 | 0.00 | 85 | 1016.3 |
| 20260906104854 | 57 | 25 | 1.7 | 1.7 | 0.00 | 0.00 | 0.00 | 85 | 1016.2 |
| 20260906104353 | 57 | 44 | 0.9 | 0.9 | 0.00 | 0.00 | 0.00 | 85 | 1016.3 |
| 20260906103852 | 57 | 22 | 1.7 | 2.6 | 0.00 | 0.00 | 0.00 | 85 | 1016.3 |
| 20260906103350 | 57 | 352 | 1.7 | 2.6 | 0.00 | 0.00 | 0.00 | 85 | 1016.3 |
| 20260906102846 | 57 | 323 | 0.0 | 0.0 | 0.00 | 0.00 | 0.00 | 84 | 1016.2 |
| 20260906102345 | 57 | 354 | 0.0 | 0.0 | 0.00 | 0.00 | 0.00 | 84 | 1016.1 |
| 20260906101840 | 57 | 302 | 0.0 | 0.0 | 0.00 | 0.00 | 0.00 | 83 | 1016.2 |
| 20260906101335 | 57 | 305 | 0.0 | 0.0 | 0.00 | 0.00 | 0.00 | 83 | 1016.1 |
| 20260906100831 | 57 | 310 | 0.0 | 0.0 | 0.00 | 0.00 | 0.00 | 83 | 1016.2 |
| 20260906100330 | 57 | 319 | 0.0 | 0.0 | 0.00 | 0.00 | 0.00 | 82 | 1016.2 |
| 20260906095825 | 58 | 320 | 0.0 | 0.0 | 0.00 | 0.00 | 0.00 | 82 | 1016.2 |
| 20260906095321 | 58 | 321 | 0.0 | 0.9 | 0.00 | 0.00 | 0.00 | 82 | 1016.1 |
| 20260906094820 | 58 | 352 | 0.0 | 0.0 | 0.00 | 0.00 | 0.00 | 82 | 1016.0 |
| 20260906094315 | 58 | 329 | 0.9 | 0.9 | 0.00 | 0.00 | 0.00 | 82 | 1016.0 |
| 20260906093812 | 58 | 345 | 2.6 | 2.6 | 0.00 | 0.00 | 0.00 | 82 | 1016.2 |
| 20260906093307 | 58 | 346 | 0.0 | 0.0 | 0.00 | 0.00 | 0.00 | 82 | 1016.2 |
| 20260906092801 | 57 | 330 | 0.0 | 0.0 | 0.00 | 0.00 | 0.00 | 82 | 1015.9 |
| 20260906092256 | 58 | 314 | 0.0 | 0.0 | 0.00 | 0.00 | 0.00 | 81 | 1015.9 |
| 20260906091752 | 58 | 8 | 0.0 | 0.0 | 0.00 | 0.00 | 0.00 | 81 | 1016.2 |
| 20260906091248 | 58 | 10 | 1.7 | 1.7 | 0.00 | 0.00 | 0.00 | 80 | 1016.1 |
| 20260906090744 | 58 | 4 | 0.0 | 0.0 | 0.00 | 0.00 | 0.00 | 80 | 1016.1 |
| 20260906090243 | 58 | 25 | 0.9 | 1.7 | 0.00 | 0.00 | 0.00 | 80 | 1016.1 |
| 20260906085742 | 58 | 351 | 0.0 | 0.0 | 0.00 | 0.00 | 0.00 | 80 | 1016.2 |
| 20260906085242 | 58 | 339 | 2.6 | 2.6 | 0.00 | 0.00 | 0.00 | 80 | 1016.0 |
| 20260906084736 | 58 | 346 | 1.7 | 1.7 | 0.00 | 0.00 | 0.00 | 80 | 1016.2 |
| 20260906084231 | 58 | 307 | 0.0 | 0.0 | 0.00 | 0.00 | 0.00 | 79 | 1016.4 |
| 20260906083726 | 58 | 307 | 0.0 | 0.0 | 0.00 | 0.00 | 0.00 | 79 | 1016.2 |
| 20260906083221 | 58 | 320 | 0.9 | 0.9 | 0.00 | 0.00 | 0.00 | 78 | 1016.3 |
| 20260906082716 | 59 | 326 | 0.9 | 0.9 | 0.00 | 0.00 | 0.00 | 78 | 1016.3 |
| 20260906082211 | 59 | 322 | 1.7 | 1.7 | 0.00 | 0.00 | 0.00 | 78 | 1016.4 |
| 20260906081708 | 59 | 321 | 1.7 | 2.6 | 0.00 | 0.00 | 0.00 | 77 | 1016.2 |
| 20260906081202 | 59 | 322 | 1.7 | 1.7 | 0.00 | 0.00 | 0.00 | 77 | 1016.2 |
| 20260906080659 | 59 | 321 | 0.9 | 0.9 | 0.00 | 0.00 | 0.00 | 76 | 1016.2 |
| 20260906080155 | 60 | 328 | 0.0 | 0.0 | 0.00 | 0.00 | 0.00 | 75 | 1016.4 |
| 20260906075654 | 60 | 10 | 1.7 | 1.7 | 0.00 | 0.00 | 0.00 | 75 | 1016.3 |
| 20260906075149 | 60 | 340 | 0.9 | 0.9 | 0.00 | 0.00 | 0.00 | 74 | 1016.5 |
| 20260906074644 | 60 | 342 | 0.9 | 1.7 | 0.00 | 0.00 | 0.00 | 74 | 1016.0 |
| 20260906074143 | 60 | 356 | 0.0 | 0.0 | 0.00 | 0.00 | 0.00 | 74 | 1016.1 |
| 20260906073638 | 60 | 344 | 2.6 | 2.6 | 0.00 | 0.00 | 0.00 | 74 | 1016.2 |
| 20260906073134 | 60 | 8 | 2.6 | 2.6 | 0.00 | 0.00 | 0.00 | 73 | 1016.5 |
| 20260906072629 | 60 | 342 | 1.7 | 1.7 | 0.00 | 0.00 | 0.00 | 73 | 1016.3 |
| 20260906072124 | 60 | 327 | 1.7 | 1.7 | 0.00 | 0.00 | 0.00 | 73 | 1016.3 |
| 20260906071621 | 60 | 0 | 2.6 | 4.3 | 0.00 | 0.00 | 0.00 | 73 | 1016.6 |
| 20260906071115 | 61 | 330 | 0.9 | 0.9 | 0.00 | 0.00 | 0.00 | 72 | 1016.4 |
| 20260906070612 | 61 | 351 | 1.7 | 2.6 | 0.00 | 0.00 | 0.00 | 72 | 1016.4 |
| 20260906070107 | 61 | 351 | 2.6 | 4.3 | 0.00 | 0.00 | 0.00 | 72 | 1016.4 |
| 20260906065606 | 61 | 10 | 3.5 | 4.3 | 0.00 | 0.01 | 0.01 | 73 | 1016.4 |
| 20260906065102 | 61 | 352 | 2.6 | 2.6 | 0.00 | 0.01 | 0.01 | 73 | 1016.5 |
| 20260906064558 | 61 | 329 | 2.6 | 2.6 | 0.00 | 0.01 | 0.01 | 72 | 1016.5 |
| 20260906064052 | 61 | 340 | 2.6 | 5.2 | 0.00 | 0.01 | 0.01 | 72 | 1016.5 |
| 20260906063547 | 61 | 340 | 2.6 | 5.2 | 0.00 | 0.01 | 0.01 | 72 | 1016.4 |
| 20260906063044 | 61 | 3 | 4.3 | 5.2 | 0.00 | 0.01 | 0.01 | 72 | 1016.4 |
| 20260906062538 | 61 | 336 | 4.3 | 5.2 | 0.00 | 0.01 | 0.01 | 72 | 1016.5 |
| 20260906062032 | 61 | 313 | 0.0 | 0.0 | 0.00 | 0.01 | 0.01 | 71 | 1016.5 |
| 20260906061529 | 61 | 300 | 0.9 | 0.9 | 0.00 | 0.01 | 0.01 | 71 | 1016.6 |
| 20260906061028 | 62 | 311 | 0.9 | 0.9 | 0.00 | 0.01 | 0.01 | 70 | 1016.5 |
| 20260906060525 | 62 | 340 | 2.6 | 2.6 | 0.00 | 0.01 | 0.01 | 69 | 1016.3 |
| 20260906060022 | 62 | 1 | 2.6 | 4.3 | 0.00 | 0.01 | 0.01 | 69 | 1016.5 |
| 20260906055517 | 62 | 353 | 2.6 | 2.6 | 0.00 | 0.01 | 0.01 | 69 | 1016.6 |
| 20260906055012 | 62 | 337 | 2.6 | 4.3 | 0.00 | 0.01 | 0.01 | 69 | 1016.6 |
| 20260906054507 | 62 | 353 | 2.6 | 2.6 | 0.00 | 0.01 | 0.01 | 69 | 1016.5 |
| 20260906054003 | 62 | 337 | 1.7 | 1.7 | 0.00 | 0.01 | 0.01 | 69 | 1016.6 |
| 20260906053459 | 62 | 355 | 3.5 | 5.2 | 0.00 | 0.01 | 0.01 | 70 | 1016.5 |
| 20260906052954 | 62 | 9 | 2.6 | 5.2 | 0.00 | 0.01 | 0.01 | 70 | 1016.7 |
| 20260906052450 | 62 | 349 | 3.5 | 4.3 | 0.00 | 0.01 | 0.01 | 70 | 1016.6 |
| 20260906051947 | 62 | 350 | 2.6 | 2.6 | 0.00 | 0.01 | 0.01 | 70 | 1016.6 |
| 20260906051442 | 62 | 18 | 4.3 | 7.0 | 0.00 | 0.01 | 0.01 | 70 | 1016.6 |
| 20260906050937 | 62 | 6 | 3.5 | 6.1 | 0.00 | 0.01 | 0.01 | 70 | 1016.6 |
| 20260906050437 | 62 | 9 | 2.6 | 2.6 | 0.00 | 0.01 | 0.01 | 70 | 1016.6 |
| 20260906045936 | 63 | 346 | 1.7 | 1.7 | 0.00 | 0.01 | 0.01 | 70 | 1016.6 |
| 20260906045435 | 63 | 352 | 2.6 | 4.3 | 0.00 | 0.01 | 0.01 | 70 | 1016.6 |
| 20260906044932 | 63 | 3 | 2.6 | 4.3 | 0.00 | 0.01 | 0.01 | 70 | 1016.8 |
| 20260906044426 | 63 | 13 | 2.6 | 2.6 | 0.00 | 0.01 | 0.01 | 70 | 1016.8 |
| 20260906043921 | 63 | 343 | 5.2 | 6.1 | 0.00 | 0.01 | 0.01 | 70 | 1016.7 |
| 20260906043417 | 63 | 359 | 1.7 | 2.6 | 0.00 | 0.01 | 0.01 | 70 | 1016.8 |
| 20260906042913 | 63 | 343 | 4.3 | 5.2 | 0.00 | 0.01 | 0.01 | 69 | 1016.7 |
| 20260906042412 | 63 | 351 | 2.6 | 2.6 | 0.00 | 0.01 | 0.01 | 70 | 1016.7 |
| 20260906041907 | 63 | 358 | 3.5 | 5.2 | 0.00 | 0.01 | 0.01 | 70 | 1016.7 |
| 20260906041402 | 63 | 4 | 6.1 | 7.8 | 0.00 | 0.01 | 0.01 | 71 | 1017.0 |
| 20260906040857 | 63 | 342 | 3.5 | 5.2 | 0.00 | 0.01 | 0.01 | 72 | 1016.8 |
| 20260906040352 | 62 | 309 | 1.7 | 1.7 | 0.00 | 0.01 | 0.01 | 74 | 1016.9 |
| 20260906035848 | 62 | 323 | 2.6 | 4.3 | 0.07 | 0.01 | 0.01 | 74 | 1016.9 |
| 20260906035343 | 63 | 349 | 5.2 | 8.7 | 0.07 | 0.01 | 0.01 | 73 | 1017.1 |
| 20260906034838 | 64 | 326 | 0.9 | 1.7 | 0.00 | 0.00 | 0.00 | 71 | 1017.0 |
| 20260906034333 | 64 | 350 | 0.9 | 1.7 | 0.00 | 0.00 | 0.00 | 68 | 1016.9 |
| 20260906033829 | 65 | 331 | 0.0 | 0.0 | 0.00 | 0.00 | 0.00 | 64 | 1017.1 |
| 20260906033328 | 66 | 328 | 0.0 | 0.0 | 0.00 | 0.00 | 0.00 | 60 | 1016.6 |
| 20260906032825 | 66 | 329 | 0.0 | 0.0 | 0.00 | 0.00 | 0.00 | 58 | 1016.9 |
| 20260906032320 | 66 | 354 | 0.0 | 0.0 | 0.00 | 0.00 | 0.00 | 58 | 1016.7 |
| 20260906031815 | 66 | 357 | 0.9 | 1.7 | 0.00 | 0.00 | 0.00 | 57 | 1016.8 |
| 20260906031311 | 67 | 27 | 0.0 | 0.0 | 0.00 | 0.00 | 0.00 | 55 | 1016.7 |
| 20260906030810 | 66 | 11 | 0.0 | 0.0 | 0.00 | 0.00 | 0.00 | 55 | 1016.6 |
| 20260906030306 | 66 | 319 | 0.0 | 0.0 | 0.00 | 0.00 | 0.00 | 55 | 1016.7 |
| 20260906025805 | 66 | 341 | 0.0 | 0.0 | 0.00 | 0.00 | 0.00 | 55 | 1016.5 |
| 20260906025259 | 66 | 338 | 0.0 | 0.0 | 0.00 | 0.00 | 0.00 | 55 | 1016.4 |
| 20260906024758 | 66 | 341 | 0.0 | 0.0 | 0.00 | 0.00 | 0.00 | 55 | 1016.6 |
| 20260906024257 | 66 | 325 | 0.0 | 0.0 | 0.00 | 0.00 | 0.00 | 56 | 1016.6 |
| 20260906023753 | 66 | 334 | 0.0 | 0.0 | 0.00 | 0.00 | 0.00 | 57 | 1016.4 |
| 20260906023248 | 66 | 337 | 0.0 | 0.0 | 0.00 | 0.00 | 0.00 | 57 | 1016.4 |
| 20260906022744 | 66 | 311 | 0.0 | 0.0 | 0.00 | 0.00 | 0.00 | 59 | 1016.4 |
| 20260906022239 | 66 | 300 | 0.0 | 0.0 | 0.00 | 0.00 | 0.00 | 59 | 1016.4 |
| 20260906021735 | 67 | 290 | 0.0 | 0.0 | 0.00 | 0.00 | 0.00 | 57 | 1016.6 |
| 20260906021234 | 67 | 297 | 1.7 | 1.7 | 0.00 | 0.00 | 0.00 | 56 | 1016.5 |
| 20260906020728 | 68 | 301 | 0.9 | 0.9 | 0.00 | 0.00 | 0.00 | 54 | 1016.6 |
| 20260906020218 | 68 | 303 | 0.9 | 1.7 | 0.00 | 0.00 | 0.00 | 53 | 1016.3 |
| 20260906015718 | 68 | 256 | 2.6 | 2.6 | 0.00 | 0.00 | 0.00 | 53 | 1016.2 |
| 20260906015216 | 69 | 285 | 1.7 | 2.6 | 0.00 | 0.00 | 0.00 | 53 | 1016.3 |
| 20260906014711 | 69 | 299 | 0.9 | 0.9 | 0.00 | 0.00 | 0.00 | 52 | 1016.3 |
| 20260906014207 | 70 | 275 | 0.9 | 0.9 | 0.00 | 0.00 | 0.00 | 52 | 1016.5 |
| 20260906013703 | 70 | 299 | 0.9 | 0.9 | 0.00 | 0.00 | 0.00 | 52 | 1016.3 |
| 20260906013157 | 70 | 300 | 0.9 | 2.6 | 0.00 | 0.00 | 0.00 | 52 | 1016.3 |
| 20260906012657 | 71 | 278 | 0.0 | 0.9 | 0.00 | 0.00 | 0.00 | 50 | 1016.3 |
| 20260906012152 | 71 | 294 | 0.9 | 0.9 | 0.00 | 0.00 | 0.00 | 52 | 1016.3 |
| 20260906011648 | 72 | 303 | 0.9 | 0.9 | 0.00 | 0.00 | 0.00 | 51 | 1016.3 |
| 20260906011142 | 71 | 294 | 2.6 | 4.3 | 0.00 | 0.00 | 0.00 | 52 | 1016.2 |
| 20260906010637 | 72 | 278 | 3.5 | 4.3 | 0.00 | 0.00 | 0.00 | 52 | 1016.2 |
| 20260906010134 | 71 | 254 | 0.0 | 0.0 | 0.00 | 0.00 | 0.00 | 52 | 1016.1 |
| 20260906005633 | 70 | 266 | 4.3 | 5.2 | 0.00 | 0.00 | 0.00 | 54 | 1016.3 |
| 20260906005127 | 72 | 338 | 2.6 | 2.6 | 0.00 | 0.00 | 0.00 | 52 | 1016.0 |
| 20260906004626 | 73 | 306 | 0.9 | 0.9 | 0.00 | 0.00 | 0.00 | 50 | 1016.2 |
| 20260906004121 | 72 | 262 | 0.0 | 0.9 | 0.00 | 0.00 | 0.00 | 52 | 1016.2 |
| 20260906003616 | 73 | 198 | 2.6 | 2.6 | 0.00 | 0.00 | 0.00 | 52 | 1016.0 |
| 20260906003112 | 72 | 243 | 0.9 | 0.9 | 0.00 | 0.00 | 0.00 | 52 | 1016.0 |
| 20260906002607 | 71 | 210 | 0.0 | 0.0 | 0.00 | 0.00 | 0.00 | 54 | 1016.2 |
| 20260906002101 | 71 | 285 | 0.9 | 1.7 | 0.00 | 0.00 | 0.00 | 55 | 1016.1 |
| 20260906001556 | 71 | 156 | 3.5 | 4.3 | 0.00 | 0.00 | 0.00 | 55 | 1016.1 |
| 20260906001051 | 70 | 221 | 0.0 | 0.0 | 0.00 | 0.00 | 0.00 | 54 | 1016.2 |
| 20260906000547 | 70 | 200 | 3.5 | 4.3 | 0.00 | 0.00 | 0.00 | 54 | 1016.2 |
| 20260906000042 | 70 | 163 | 0.9 | 1.7 | 0.00 | 0.00 | 0.00 | 54 | 1016.1 |
| 20260905235541 | 70 | 206 | 1.7 | 1.7 | 0.00 | 0.00 | 0.00 | 54 | 1016.1 |
| 20260905235037 | 71 | 212 | 0.9 | 1.7 | 0.00 | 0.00 | 0.00 | 54 | 1016.2 |
| 20260905234532 | 71 | 276 | 0.0 | 0.0 | 0.00 | 0.00 | 0.00 | 55 | 1016.2 |
| 20260905234027 | 71 | 242 | 0.0 | 0.0 | 0.00 | 0.00 | 0.00 | 56 | 1016.4 |
| 20260905233522 | 70 | 215 | 2.6 | 2.6 | 0.00 | 0.00 | 0.00 | 58 | 1016.2 |
| 20260905233021 | 70 | 15 | 1.7 | 1.7 | 0.00 | 0.00 | 0.00 | 59 | 1016.0 |
| 20260905232517 | 70 | 118 | 0.0 | 0.9 | 0.00 | 0.00 | 0.00 | 60 | 1016.3 |
| 20260905232013 | 71 | 69 | 0.0 | 0.0 | 0.00 | 0.00 | 0.00 | 58 | 1016.3 |
| 20260905231508 | 71 | 78 | 0.0 | 0.9 | 0.00 | 0.00 | 0.00 | 59 | 1016.4 |
| 20260905231004 | 71 | 124 | 0.0 | 0.9 | 0.00 | 0.00 | 0.00 | 57 | 1016.4 |
| 20260905230503 | 70 | 261 | 0.0 | 0.9 | 0.00 | 0.00 | 0.00 | 57 | 1016.4 |
| 20260905230001 | 70 | 184 | 0.0 | 0.0 | 0.00 | 0.00 | 0.00 | 57 | 1016.6 |
| 20260905225456 | 70 | 155 | 1.7 | 2.6 | 0.00 | 0.00 | 0.00 | 61 | 1016.4 |
| 20260905224951 | 69 | 203 | 0.0 | 0.0 | 0.00 | 0.00 | 0.00 | 60 | 1016.5 |
| 20260905224446 | 70 | 187 | 3.5 | 5.2 | 0.00 | 0.00 | 0.00 | 60 | 1016.7 |
| 20260905223945 | 72 | 256 | 0.0 | 0.0 | 0.00 | 0.00 | 0.00 | 57 | 1016.5 |
| 20260905223443 | 70 | 221 | 0.0 | 0.0 | 0.00 | 0.00 | 0.00 | 60 | 1016.8 |
| 20260905222943 | 69 | 157 | 2.6 | 2.6 | 0.00 | 0.00 | 0.00 | 58 | 1016.8 |
| 20260905222438 | 67 | 214 | 0.9 | 1.7 | 0.00 | 0.00 | 0.00 | 62 | 1016.6 |
| 20260905221934 | 67 | 216 | 0.0 | 0.9 | 0.00 | 0.00 | 0.00 | 64 | 1016.8 |
| 20260905221430 | 67 | 143 | 0.0 | 0.0 | 0.00 | 0.00 | 0.00 | 63 | 1016.9 |
| 20260905220926 | 67 | 173 | 1.7 | 2.6 | 0.00 | 0.00 | 0.00 | 64 | 1017.0 |
| 20260905220422 | 67 | 239 | 0.9 | 1.7 | 0.00 | 0.00 | 0.00 | 65 | 1017.0 |
| 20260905215921 | 66 | 260 | 1.7 | 1.7 | 0.00 | 0.00 | 0.00 | 66 | 1017.1 |
| 20260905215416 | 66 | 197 | 2.6 | 4.3 | 0.00 | 0.00 | 0.00 | 66 | 1016.9 |
| 20260905214913 | 66 | 214 | 4.3 | 4.3 | 0.00 | 0.00 | 0.00 | 65 | 1017.1 |
| 20260905214409 | 66 | 200 | 4.3 | 5.2 | 0.00 | 0.00 | 0.00 | 65 | 1017.3 |
| 20260905213908 | 67 | 170 | 4.3 | 6.1 | 0.00 | 0.00 | 0.00 | 65 | 1017.2 |
| 20260905213405 | 67 | 285 | 0.0 | 0.0 | 0.00 | 0.00 | 0.00 | 65 | 1017.1 |
| 20260905212900 | 67 | 259 | 0.0 | 0.0 | 0.00 | 0.00 | 0.00 | 65 | 1017.3 |
| 20260905212400 | 67 | 181 | 4.3 | 5.2 | 0.00 | 0.00 | 0.00 | 65 | 1017.0 |
| 20260905211853 | 67 | 220 | 0.9 | 0.9 | 0.00 | 0.00 | 0.00 | 66 | 1017.1 |
| 20260905211349 | 67 | 245 | 0.9 | 1.7 | 0.00 | 0.00 | 0.00 | 67 | 1017.4 |
| 20260905210846 | 66 | 227 | 2.6 | 2.6 | 0.00 | 0.00 | 0.00 | 67 | 1017.2 |
| 20260905210345 | 67 | 202 | 2.6 | 4.3 | 0.00 | 0.00 | 0.00 | 68 | 1017.3 |
| 20260905205844 | 65 | 236 | 5.2 | 6.1 | 0.00 | 0.00 | 0.00 | 70 | 1017.2 |
| 20260905205339 | 66 | 241 | 0.0 | 1.7 | 0.00 | 0.00 | 0.00 | 69 | 1017.3 |
| 20260905204838 | 66 | 310 | 1.7 | 1.7 | 0.00 | 0.00 | 0.00 | 68 | 1017.2 |
| 20260905204335 | 66 | 218 | 3.5 | 4.3 | 0.00 | 0.00 | 0.00 | 69 | 1017.1 |
| 20260905203833 | 68 | 274 | 0.9 | 1.7 | 0.00 | 0.00 | 0.00 | 67 | 1017.4 |
| 20260905203329 | 68 | 221 | 2.6 | 4.3 | 0.00 | 0.00 | 0.00 | 66 | 1017.5 |
| 20260905202825 | 68 | 183 | 0.9 | 1.7 | 0.00 | 0.00 | 0.00 | 65 | 1017.4 |
| 20260905202320 | 67 | 275 | 3.5 | 7.0 | 0.00 | 0.00 | 0.00 | 66 | 1017.3 |
| 20260905201815 | 67 | 212 | 1.7 | 2.6 | 0.00 | 0.00 | 0.00 | 68 | 1017.4 |
| 20260905201310 | 67 | 199 | 3.5 | 4.3 | 0.00 | 0.00 | 0.00 | 66 | 1017.5 |
| 20260905200804 | 66 | 278 | 2.6 | 4.3 | 0.00 | 0.00 | 0.00 | 70 | 1017.6 |
| 20260905200300 | 66 | 268 | 3.5 | 5.2 | 0.00 | 0.00 | 0.00 | 69 | 1017.4 |
| 20260905195753 | 66 | 264 | 0.0 | 0.0 | 0.00 | 0.00 | 0.00 | 70 | 1017.4 |
| 20260905195248 | 67 | 244 | 1.7 | 4.3 | 0.00 | 0.00 | 0.00 | 68 | 1017.5 |
| 20260905194744 | 66 | 264 | 2.6 | 2.6 | 0.00 | 0.00 | 0.00 | 71 | 1017.5 |
| 20260905194243 | 65 | 268 | 3.5 | 6.1 | 0.00 | 0.00 | 0.00 | 71 | 1017.7 |
| 20260905193743 | 66 | 246 | 4.3 | 5.2 | 0.00 | 0.00 | 0.00 | 71 | 1017.6 |
| 20260905193238 | 67 | 216 | 2.6 | 4.3 | 0.00 | 0.00 | 0.00 | 70 | 1017.7 |
| 20260905192733 | 66 | 298 | 4.3 | 5.2 | 0.00 | 0.00 | 0.00 | 71 | 1017.5 |
| 20260905192230 | 66 | 238 | 1.7 | 1.7 | 0.00 | 0.00 | 0.00 | 72 | 1017.9 |
| 20260905191728 | 66 | 225 | 3.5 | 4.3 | 0.00 | 0.00 | 0.00 | 71 | 1017.6 |
| 20260905191227 | 67 | 194 | 1.7 | 1.7 | 0.00 | 0.00 | 0.00 | 71 | 1017.8 |
| 20260905190726 | 67 | 278 | 3.5 | 5.2 | 0.00 | 0.00 | 0.00 | 68 | 1017.8 |
| 20260905190225 | 67 | 249 | 1.7 | 2.6 | 0.00 | 0.00 | 0.00 | 69 | 1017.6 |
| 20260905185724 | 67 | 311 | 1.7 | 1.7 | 0.00 | 0.00 | 0.00 | 68 | 1017.7 |
| 20260905185219 | 68 | 263 | 3.5 | 5.2 | 0.00 | 0.00 | 0.00 | 68 | 1017.8 |
| 20260905184713 | 67 | 233 | 1.7 | 1.7 | 0.00 | 0.00 | 0.00 | 70 | 1017.9 |
| 20260905184212 | 67 | 252 | 0.9 | 1.7 | 0.00 | 0.00 | 0.00 | 71 | 1017.7 |
| 20260905183711 | 67 | 246 | 1.7 | 1.7 | 0.00 | 0.00 | 0.00 | 71 | 1017.8 |
| 20260905183207 | 66 | 227 | 2.6 | 2.6 | 0.00 | 0.00 | 0.00 | 72 | 1018.2 |
| 20260905182701 | 66 | 294 | 0.9 | 0.9 | 0.00 | 0.00 | 0.00 | 72 | 1018.0 |
| 20260905182201 | 65 | 270 | 0.9 | 1.7 | 0.00 | 0.00 | 0.00 | 74 | 1018.0 |
| 20260905181656 | 65 | 204 | 2.6 | 2.6 | 0.00 | 0.00 | 0.00 | 74 | 1018.1 |
| 20260905181155 | 64 | 227 | 3.5 | 5.2 | 0.00 | 0.00 | 0.00 | 76 | 1018.0 |
| 20260905180649 | 65 | 329 | 4.3 | 5.2 | 0.00 | 0.00 | 0.00 | 74 | 1018.1 |
| 20260905180145 | 63 | 312 | 0.0 | 0.9 | 0.00 | 0.00 | 0.00 | 78 | 1018.1 |
| 20260905175644 | 63 | 273 | 0.9 | 0.9 | 0.00 | 0.00 | 0.00 | 78 | 1018.3 |
| 20260905175139 | 62 | 324 | 1.7 | 1.7 | 0.00 | 0.00 | 0.00 | 79 | 1018.3 |
| 20260905174635 | 63 | 309 | 0.9 | 0.9 | 0.00 | 0.00 | 0.00 | 79 | 1018.3 |
| 20260905174131 | 62 | 286 | 0.9 | 0.9 | 0.00 | 0.00 | 0.00 | 79 | 1018.4 |
| 20260905173626 | 63 | 281 | 1.7 | 1.7 | 0.00 | 0.00 | 0.00 | 78 | 1018.2 |
| 20260905173122 | 64 | 290 | 0.9 | 0.9 | 0.00 | 0.00 | 0.00 | 77 | 1018.1 |
| 20260905172621 | 65 | 307 | 2.6 | 4.3 | 0.00 | 0.00 | 0.00 | 76 | 1018.4 |
| 20260905172116 | 65 | 277 | 2.6 | 4.3 | 0.00 | 0.00 | 0.00 | 75 | 1018.1 |
| 20260905171612 | 63 | 168 | 0.9 | 0.9 | 0.00 | 0.00 | 0.00 | 78 | 1018.1 |
| 20260905171108 | 63 | 209 | 1.7 | 1.7 | 0.00 | 0.00 | 0.00 | 78 | 1018.2 |
| 20260905170604 | 62 | 272 | 0.9 | 0.9 | 0.00 | 0.00 | 0.00 | 80 | 1017.9 |
| 20260905170059 | 62 | 242 | 1.7 | 2.6 | 0.00 | 0.00 | 0.00 | 80 | 1018.0 |
| 20260905165554 | 62 | 280 | 0.9 | 1.7 | 0.00 | 0.00 | 0.00 | 81 | 1017.7 |
| 20260905165049 | 62 | 208 | 1.7 | 1.7 | 0.00 | 0.00 | 0.00 | 82 | 1017.7 |
| 20260905164544 | 61 | 239 | 1.7 | 1.7 | 0.00 | 0.00 | 0.00 | 84 | 1017.9 |
| 20260905164038 | 60 | 196 | 3.5 | 4.3 | 0.00 | 0.00 | 0.00 | 85 | 1017.9 |
| 20260905163534 | 59 | 271 | 0.0 | 0.0 | 0.00 | 0.00 | 0.00 | 86 | 1017.9 |
| 20260905163030 | 59 | 282 | 0.0 | 0.0 | 0.00 | 0.00 | 0.00 | 87 | 1017.9 |
| 20260905162527 | 58 | 279 | 0.0 | 0.0 | 0.00 | 0.00 | 0.00 | 87 | 1018.0 |
| 20260905162021 | 59 | 257 | 0.0 | 0.0 | 0.00 | 0.00 | 0.00 | 87 | 1018.0 |
| 20260905161521 | 58 | 285 | 0.0 | 0.0 | 0.00 | 0.00 | 0.00 | 89 | 1018.0 |
| 20260905161018 | 57 | 229 | 1.7 | 1.7 | 0.00 | 0.00 | 0.00 | 89 | 1018.0 |
| 20260905160511 | 57 | 273 | 1.7 | 2.6 | 0.00 | 0.00 | 0.00 | 89 | 1017.9 |
| 20260905160011 | 58 | 251 | 2.6 | 2.6 | 0.00 | 0.00 | 0.00 | 89 | 1018.0 |
| 20260905155506 | 58 | 257 | 0.0 | 0.9 | 0.00 | 0.00 | 0.00 | 91 | 1017.9 |
| 20260905155004 | 58 | 206 | 0.9 | 1.7 | 0.00 | 0.00 | 0.00 | 92 | 1017.8 |
| 20260905154500 | 57 | 231 | 0.0 | 0.0 | 0.00 | 0.00 | 0.00 | 93 | 1017.9 |
| 20260905153955 | 56 | 236 | 1.7 | 1.7 | 0.00 | 0.00 | 0.00 | 93 | 1018.0 |
| 20260905153452 | 57 | 262 | 0.0 | 0.0 | 0.00 | 0.00 | 0.00 | 94 | 1017.9 |
| 20260905152951 | 56 | 271 | 0.0 | 0.0 | 0.00 | 0.00 | 0.00 | 95 | 1017.9 |
| 20260905152451 | 56 | 284 | 0.0 | 0.0 | 0.00 | 0.00 | 0.00 | 95 | 1018.0 |
| 20260905151946 | 56 | 288 | 0.0 | 0.0 | 0.00 | 0.00 | 0.00 | 95 | 1017.7 |
| 20260905151441 | 55 | 294 | 0.0 | 0.0 | 0.00 | 0.00 | 0.00 | 96 | 1017.7 |
| 20260905150936 | 55 | 293 | 0.0 | 0.0 | 0.00 | 0.00 | 0.00 | 96 | 1017.8 |
| 20260905150431 | 55 | 289 | 0.0 | 0.0 | 0.00 | 0.00 | 0.00 | 96 | 1017.6 |
| 20260905145927 | 55 | 291 | 0.0 | 0.0 | 0.00 | 0.00 | 0.00 | 96 | 1017.6 |
| 20260905145421 | 55 | 291 | 0.0 | 0.0 | 0.00 | 0.00 | 0.00 | 96 | 1017.3 |